Lapse_Rate
2.6 2.4 2.1 1.7 1.5 1.8 2.2 3.9 3.9 1.4 -0.2 -0.4 -0.6 -0.4 0.3 -0.1 -0.2 -0.1 0.2 0.0 -0.8 -1.6 0.6 -0.5 -0.0 -0.6 0.3 0.7 1.0 1.7 2.6 3.3 3.5 4.8 5.6 4.8 3.8 4.0 2.9 3.6 3.8 4.2 3.2
2.3 3.6 3.5 3.7 2.8 1.8 3.6 2.9 1.2 0.6 0.8 -0.6 -1.0 -0.1 -0.1 -1.0 -1.1 -1.2 -0.8 -1.0 -0.2 -0.4 -0.5 0.3 -0.4 -0.4 0.0 0.7 1.2 1.7 2.9 3.6 3.7 3.3 3.5 3.4 3.4 3.2 3.8 2.9 3.3 4.0 3.8
2.5 4.0 4.5 3.4 3.8 4.0 2.1 0.8 0.8 0.4 0.7 -0.9 -0.9 -0.5 -0.9 -1.3 -1.1 -0.8 -1.0 -0.9 0.8 0.9 0.6 0.3 -0.0 -0.1 0.7 1.1 1.5 2.0 2.6 3.1 2.9 2.4 2.5 3.5 3.7 4.0 3.3 3.8 3.9 3.9 4.8
4.4 5.5 4.3 3.0 3.1 1.4 1.2 0.9 0.1 -0.5 -0.9 -1.3 -0.5 -0.7 -1.6 -2.1 -0.7 -1.9 -1.6 -1.4 -1.2 1.0 -0.5 0.4 0.0 0.5 1.1 1.3 1.7 2.0 2.0 1.7 1.9 2.3 2.5 2.3 3.8 4.9 4.7 4.1 3.3 4.1 4.5
3.3 3.6 2.8 2.2 1.8 1.5 0.8 0.4 -0.7 -0.8 -0.6 -0.1 -0.3 -1.2 -1.8 -1.5 -2.6 -1.7 -1.1 -1.1 0.7 -0.2 -0.3 -1.3 -1.0 0.2 -1.0 -0.1 1.2 1.3 1.3 1.4 1.5 1.8 2.1 3.3 5.0 5.0 5.2 4.5 4.4 4.3 3.7
3.2 3.6 2.5 1.6 1.3 0.8 0.6 -0.0 -0.6 -1.1 -0.9 -0.5 -0.2 -0.8 -1.9 -2.3 -3.0 -2.5 -0.6 -0.3 -0.5 -1.0 -1.1 -2.6 -0.4 -0.5 -1.6 -1.8 -1.3 -0.8 0.2 1.3 1.5 1.9 2.5 4.9 4.7 4.4 4.5 4.1 4.1 4.9 5.2
3.5 1.7 2.5 1.5 0.4 0.1 0.1 -0.2 -1.2 -1.4 -0.9 -0.6 -1.0 -1.3 -1.9 -2.3 -3.1 -2.9 -2.0 0.3 -1.0 -0.5 -2.6 -1.2 -1.2 -0.7 -0.5 0.8 -0.2 -0.3 -0.0 0.2 0.4 1.6 2.7 4.3 4.2 4.2 3.7 3.6 4.5 4.8 5.1
2.9 2.0 1.4 1.5 -1.4 -1.7 -0.7 -2.3 -3.3 -2.0 -1.9 -1.4 -2.3 -2.1 -2.2 -2.6 -3.4 -3.4 -2.8 -2.3 -0.9 -1.3 -0.7 -0.9 -0.1 0.6 0.9 1.3 1.7 1.7 1.6 1.5 1.6 2.6 4.1 4.1 3.9 3.6 3.6 3.8 4.2 4.2 4.1
3.4 2.7 1.6 1.9 -0.3 -3.0 -2.7 -2.4 -4.0 -3.5 -4.3 -3.9 -3.3 -3.2 -3.7 -3.5 -3.5 -3.5 -3.4 -2.6 -3.0 -3.1 -1.6 -0.3 0.4 1.1 0.3 0.3 1.3 1.0 1.0 1.5 1.5 1.8 3.7 3.6 3.1 2.8 2.6 3.3 3.4 3.9 5.1
3.6 2.8 2.8 1.7 0.3 -1.5 -3.9 -4.2 -3.4 -3.5 -3.9 -3.4 -3.5 -3.1 -3.3 -3.6 -3.2 -3.3 -1.5 -1.9 -2.1 -1.1 -0.8 -0.2 -0.2 1.3 0.8 0.6 1.6 1.3 1.3 2.1 1.8 3.1 4.5 3.3 3.0 3.0 2.7 2.8 2.9 4.1 4.9
4.5 2.9 2.6 2.5 -0.1 -0.8 -3.1 -3.8 -3.5 -3.2 -2.4 -1.9 -2.3 -2.5 -2.1 -2.3 -2.8 -2.2 -1.6 0.4 0.5 0.7 0.7 0.6 1.4 1.2 1.2 1.0 0.6 0.9 1.3 0.9 1.2 3.2 4.7 5.1 4.9 4.9 3.8 2.6 2.0 2.9 4.1
4.4 2.2 1.7 1.5 -0.3 -1.6 -3.3 -3.2 -2.9 -2.1 -1.7 -0.9 -1.0 -1.8 -1.5 -1.6 -1.1 -1.2 -0.8 -0.6 0.1 0.9 0.7 1.2 1.2 1.5 1.1 0.8 0.7 0.8 0.9 1.0 2.7 3.7 4.3 4.1 3.8 3.3 3.2 3.4 2.4 2.4 2.4
0.4 -0.1 -0.1 -0.4 -1.2 -1.8 -2.9 -3.0 -1.3 -1.2 -0.6 -0.4 -0.4 -1.1 -0.7 -0.4 0.1 -0.2 -0.6 -0.6 -0.6 0.6 1.6 1.2 1.5 2.0 1.3 0.8 1.1 1.4 1.5 2.8 3.1 3.5 3.9 3.9 3.5 3.1 2.9 4.1 3.5 3.6 3.7
-0.2 -0.7 -1.5 -1.6 -1.9 -1.0 -1.4 -1.3 -0.9 0.0 0.4 0.2 0.3 -0.2 -0.2 0.4 0.2 0.3 0.2 0.5 -0.8 1.0 0.7 2.8 2.6 2.2 2.1 2.1 2.5 2.8 3.3 3.4 3.5 3.7 3.5 3.7 4.5 3.6 4.0 5.4 5.7 5.3 6.4
-0.5 -0.6 -0.3 -0.5 -0.1 -0.4 0.2 0.8 0.7 -0.4 0.5 0.4 -0.2 -0.8 -0.1 0.0 -0.2 -0.2 -0.1 0.7 1.3 1.2 2.1 3.6 4.3 4.5 4.4 5.1 4.5 4.4 3.9 3.8 3.9 3.5 3.8 3.8 5.1 5.5 5.9 6.1 6.0 6.4 5.9
-0.5 0.4 0.4 0.6 0.8 1.0 0.8 2.3 2.0 0.6 -0.1 1.9 0.6 -0.2 0.0 0.1 -0.4 0.5 0.8 1.6 1.8 1.5 4.5 4.8 4.9 5.1 5.8 5.1 4.9 4.7 4.4 4.0 3.8 4.0 4.2 4.3 5.2 5.9 6.2 6.1 6.4 6.6 6.6
1.3 1.0 1.1 1.1 1.1 1.5 1.8 2.6 3.3 2.8 1.4 1.2 0.6 0.6 0.4 -0.1 0.9 1.2 1.6 2.8 3.2 3.6 5.5 5.6 6.1 6.0 5.7 5.9 5.8 5.8 5.3 4.7 4.3 4.2 4.6 4.5 5.4 6.0 6.6 6.6 6.7 7.0 6.9
1.9 1.4 1.5 2.2 1.8 2.1 2.8 3.6 2.6 2.5 2.5 1.7 1.2 1.0 1.1 1.3 1.6 2.5 3.2 4.3 5.5 6.8 6.9 6.4 6.7 6.4 6.3 6.0 6.3 6.4 5.9 6.1 5.0 4.7 5.1 5.2 5.1 6.1 5.9 7.0 7.3 7.4 8.4
2.9 3.5 3.2 3.1 3.2 3.6 4.1 3.4 2.6 2.4 2.7 2.6 2.7 2.6 2.3 2.1 3.2 3.8 4.9 5.9 5.9 6.3 6.3 6.2 6.1 5.8 5.7 5.6 6.1 5.5 5.5 5.4 5.5 4.8 5.3 5.2 4.2 6.0 5.8 6.8 6.9 6.3 8.0
3.9 3.5 3.9 4.6 5.0 5.2 4.8 4.0 3.5 2.8 2.4 2.9 3.4 3.8 4.4 5.0 5.1 5.6 5.7 5.6 6.0 5.8 5.9 5.8 5.8 5.5 4.5 4.5 4.5 4.4 4.7 5.4 5.2 5.3 5.0 5.0 4.6 6.6 6.6 6.9 7.1 8.1 8.3
4.5 4.4 4.0 4.8 5.5 5.4 5.2 3.7 2.7 2.7 3.1 3.7 3.6 3.3 4.1 5.2 5.3 5.7 5.9 5.9 6.1 6.1 5.8 5.4 4.7 4.3 4.2 4.1 4.2 4.1 4.3 4.3 4.4 4.8 5.5 5.7 4.9 5.7 6.8 7.1 7.0 7.4 7.9
4.6 4.8 4.7 4.6 4.1 3.8 2.8 2.3 2.6 3.0 3.4 3.6 3.9 4.3 4.8 5.1 5.6 5.8 6.0 5.9 6.1 6.5 6.6 5.8 4.9 4.5 4.3 4.5 4.7 4.8 5.0 4.6 4.0 4.3 4.7 5.1 5.5 6.1 6.7 6.9 6.8 6.7 7.1
4.6 4.5 4.1 3.5 2.8 2.2 2.8 3.0 3.1 3.2 3.4 3.4 3.9 4.9 5.7 5.5 5.7 6.0 5.8 5.8 6.1 6.2 6.4 5.8 4.9 4.4 4.3 4.3 4.4 4.9 5.1 5.1 4.8 4.2 4.4 4.9 5.8 6.2 6.4 6.6 6.6 6.6 6.7
3.7 3.1 2.9 3.2 3.1 3.3 3.4 3.5 3.2 2.9 3.4 4.4 5.1 5.5 5.5 5.5 5.5 5.6 5.8 6.0 6.0 6.1 6.2 6.5 6.5 5.6 4.7 4.5 4.1 4.2 4.3 3.6 3.8 3.7 3.9 4.7 5.6 5.8 6.1 6.2 6.2 5.9 6.2
3.3 3.5 3.6 3.7 3.7 3.5 3.3 3.4 3.8 4.2 4.3 4.5 5.2 5.5 5.5 5.5 5.7 6.0 6.2 6.6 6.8 6.7 7.1 6.5 5.8 4.6 3.9 3.3 3.2 2.6 1.5 2.2 3.0 2.7 4.0 4.9 4.9 5.1 5.7 5.9 5.7 5.7 6.0
3.8 3.8 3.7 4.0 4.0 4.0 4.1 4.2 4.4 4.7 4.8 5.1 5.1 5.4 5.6 6.1 6.5 6.5 6.8 6.6 6.3 6.3 6.4 5.8 4.1 3.3 2.7 2.4 1.6 1.7 1.9 1.8 2.2 2.5 4.5 5.4 5.7 5.7 5.8 5.2 5.3 5.8 5.8
Wind_Speed
12 14 14 15 17 14 13 13 13 13 15 15 15 14 15 14 12 11 11 12 8 8 9 7 8 8 5 4 4 4 4 4 5 8 5 9 12 14 17 22 23 22 20
11 12 13 12 12 13 12 11 12 13 15 16 15 15 15 14 12 11 12 8 10 10 9 9 8 6 6 5 4 4 4 4 5 9 8 6 10 12 14 14 15 19 19
9 11 11 10 11 11 11 12 13 13 14 15 15 16 15 13 13 11 10 9 4 7 9 9 9 8 6 5 4 3 3 3 4 5 7 7 9 8 10 10 9 13 17
6 7 7 8 9 10 11 12 12 13 15 15 14 15 14 14 14 11 12 10 10 9 9 8 8 7 7 6 5 3 3 3 4 6 6 7 6 6 7 8 7 7 9
5 5 7 8 9 10 10 11 12 13 13 14 16 14 13 12 10 13 13 12 12 11 10 9 8 6 6 4 3 3 3 3 4 5 5 5 4 4 6 4 6 8 9
7 8 7 8 9 10 11 12 12 11 13 14 15 17 15 8 17 17 16 13 12 11 10 8 8 10 9 7 5 1 3 5 6 4 5 5 6 6 4 7 6 4 5
9 7 8 8 8 9 11 12 12 13 14 14 14 14 12 11 20 19 15 11 10 11 9 10 8 5 5 5 5 5 5 6 8 7 7 6 5 3 7 8 7 5 4
10 9 8 9 9 7 11 12 11 12 14 14 12 13 13 10 20 18 14 10 10 9 8 7 7 7 5 3 1 2 4 4 5 5 7 7 6 6 7 7 8 6 6
9 9 10 10 11 10 10 10 8 9 10 11 12 13 14 13 19 19 13 10 8 7 5 6 6 6 5 2 1 1 3 3 5 8 9 8 5 7 8 5 4 5 3
11 12 12 11 10 12 11 12 8 10 10 11 11 10 17 14 18 17 13 7 8 7 7 5 6 4 5 5 1 1 2 1 4 4 2 2 4 5 7 4 4 4 3
11 11 12 12 11 11 11 10 11 11 12 12 12 11 12 14 13 16 12 8 8 7 6 5 4 7 7 5 4 1 1 2 3 3 2 2 2 2 3 5 5 2 3
10 11 12 13 9 11 13 11 13 13 14 12 13 10 8 11 15 14 13 11 11 9 6 5 5 10 9 7 4 3 3 2 1 2 1 3 3 4 4 4 5 5 4
8 8 10 11 11 13 15 14 11 13 12 11 10 11 9 8 8 16 14 14 11 7 7 8 10 10 9 6 7 6 3 2 1 1 2 2 3 4 6 3 2 1 3
10 10 10 12 11 11 9 11 12 12 12 12 11 11 10 9 8 7 7 8 8 7 8 8 6 6 5 5 3 3 2 3 3 2 2 3 3 3 3 3 3 1 3
9 9 10 10 12 11 9 9 10 12 11 13 12 13 13 10 9 11 11 8 8 8 8 7 7 5 5 4 3 3 3 3 3 1 2 3 3 3 3 3 4 4 5
10 9 10 10 10 10 10 8 9 13 20 12 18 16 7 13 20 18 15 14 14 13 8 7 5 5 5 4 4 3 3 3 3 1 2 2 2 3 3 4 4 4 4
12 12 10 12 11 12 12 12 12 10 18 19 17 18 19 22 19 19 16 16 15 9 7 7 6 5 5 4 4 3 3 2 2 2 3 2 2 2 3 4 4 4 4
11 15 11 10 11 12 12 12 12 13 12 9 13 16 21 21 19 18 18 15 8 6 6 7 7 6 5 4 3 3 3 3 3 2 2 2 2 3 3 4 4 4 4
10 9 9 9 10 13 12 13 12 13 12 11 10 11 14 20 19 20 15 8 9 8 7 6 6 5 5 4 3 3 3 3 2 2 2 2 2 3 3 3 4 4 4
9 13 12 9 10 11 12 14 12 12 13 11 10 11 11 12 9 8 7 7 7 8 7 7 6 5 5 4 3 3 3 2 2 2 3 2 2 2 3 3 3 5 5
8 9 15 11 10 10 11 12 12 11 12 10 10 10 15 10 10 9 8 7 7 8 8 7 6 5 5 4 4 3 3 2 2 3 3 3 2 2 3 4 4 5 5
9 10 10 11 11 11 10 11 11 12 12 12 11 10 14 8 8 9 9 8 7 8 7 7 6 5 4 4 3 3 4 3 2 2 2 3 2 3 3 3 4 5 5
9 11 11 9 11 15 11 10 11 11 11 11 11 10 9 8 9 9 9 8 8 8 9 9 7 5 6 6 5 4 4 3 2 3 3 3 3 3 3 4 4 5 6
11 11 12 11 10 11 11 11 11 13 12 11 10 9 9 9 10 11 9 8 8 7 10 9 10 8 8 6 5 4 4 3 3 4 3 4 4 3 4 4 5 6 6
10 10 11 11 11 11 12 11 11 12 11 10 10 9 10 10 10 9 9 8 8 8 9 11 11 11 10 9 8 8 6 5 4 5 6 6 6 6 5 5 6 6 7
10 10 10 9 10 10 11 11 11 11 11 10 11 10 10 10 9 9 9 9 9 8 10 11 13 12 11 8 7 7 7 7 7 7 8 8 6 5 5 7 8 6 7
Wind_Direction
234 219 213 208 203 198 192 184 177 171 169 165 167 157 158 154 147 140 145 148 134 127 148 148 149 149 155 166 181 199 211 223 260 291 296 314 322 325 325 326 320 318 310
246 231 216 210 196 188 180 165 158 163 170 169 162 157 152 145 141 137 138 141 143 149 149 162 151 147 160 177 192 193 225 237 272 289 309 318 323 321 318 315 312 310 307
247 227 212 191 179 176 162 154 160 157 160 157 152 151 148 141 138 136 134 130 129 153 160 164 162 161 172 176 181 202 228 259 272 285 296 317 318 322 317 314 310 303 308
239 200 170 155 161 158 158 158 154 158 153 152 151 148 143 141 142 138 135 143 143 167 155 166 155 170 171 174 186 205 238 263 281 287 299 309 314 321 311 312 320 311 317
208 164 165 154 157 157 154 158 151 158 156 152 150 146 142 144 146 144 148 140 154 153 168 148 147 167 151 147 178 190 235 264 273 289 296 293 293 317 322 308 308 311 321
228 201 169 162 161 162 155 153 152 152 152 151 153 152 146 146 141 141 152 152 160 158 157 138 155 162 148 145 130 111 269 267 271 281 285 289 293 303 300 311 307 319 343
232 195 180 168 159 156 154 159 160 157 153 152 149 145 140 132 137 137 141 150 150 164 149 163 163 160 157 159 172 218 236 248 254 272 270 278 290 307 306 296 302 301 298
239 204 189 174 163 168 164 160 153 157 157 152 143 139 132 136 136 136 136 136 153 145 157 151 149 146 149 148 203 276 294 289 270 254 262 273 279 300 298 293 290 289 278
253 219 198 192 174 160 161 160 145 145 137 140 142 138 133 136 139 141 135 137 124 123 141 141 136 136 139 167 124 7 313 285 287 287 277 284 311 322 333 320 339 327 321
259 228 204 190 182 175 153 151 152 145 142 135 129 133 134 135 142 139 143 136 137 144 138 136 135 133 156 139 99 0 324 332 314 303 278 312 336 324 0 14 333 334 328
264 227 205 188 169 164 152 149 141 137 135 138 130 130 131 136 140 146 145 145 146 143 141 146 141 155 140 126 94 81 275 297 293 298 314 331 323 328 6 2 358 357 343
256 215 193 176 159 150 143 144 140 144 139 143 136 127 128 134 143 150 142 131 142 139 141 145 151 151 137 119 104 77 63 30 308 331 346 4 351 352 350 351 357 18 12
208 189 171 156 152 152 146 147 149 148 148 148 146 140 139 139 143 148 145 140 139 129 135 144 142 135 125 103 95 85 64 75 66 55 15 356 338 331 320 302 287 340 42
179 162 153 148 146 154 148 156 159 163 158 154 154 145 142 146 148 153 147 144 127 124 133 133 124 118 101 103 99 84 86 75 55 34 341 339 346 3 337 340 5 335 16
165 156 156 149 151 150 150 166 174 162 161 162 158 147 149 157 169 158 151 147 148 140 130 134 139 132 126 126 103 94 86 76 73 39 12 10 16 16 19 14 34 46 57
159 159 158 151 147 148 134 119 89 121 126 135 147 148 137 134 147 147 145 138 134 140 145 143 132 134 141 130 131 115 95 91 73 56 44 29 15 27 38 43 47 47 51
165 161 156 155 152 150 145 148 137 106 111 126 124 128 133 143 145 145 142 140 137 142 140 135 139 143 134 131 124 120 106 79 91 59 38 34 16 59 47 52 53 54 50
155 163 159 158 153 150 154 149 144 138 134 124 119 127 129 136 142 144 135 132 137 138 142 140 142 133 126 123 116 116 105 97 81 59 55 41 34 60 62 69 63 56 58
151 157 150 149 152 150 146 137 134 129 124 121 121 115 129 133 130 130 136 142 142 139 136 129 127 124 118 104 98 86 82 81 78 73 68 65 28 74 75 72 84 59 63
141 139 137 137 136 140 139 131 130 127 127 133 133 138 138 136 138 137 126 123 129 130 126 123 121 119 116 119 113 101 96 88 88 93 80 69 34 69 87 76 80 84 75
129 126 127 124 131 133 130 123 125 126 126 129 130 138 147 142 138 134 128 128 133 130 132 129 123 120 121 118 116 112 110 105 88 96 112 96 79 81 78 89 91 84 82
119 118 120 122 121 113 113 120 121 119 122 124 122 123 127 126 128 127 132 128 123 127 131 129 125 122 116 113 116 126 127 124 123 124 124 121 108 100 103 103 97 93 95
105 107 106 104 106 109 112 112 113 116 119 120 124 128 127 124 125 126 125 123 125 124 126 128 126 120 120 114 108 115 118 100 117 149 140 128 124 108 107 112 109 106 105
97 101 104 105 108 108 109 110 109 112 117 119 121 122 122 125 126 127 123 119 119 120 119 120 122 127 127 125 114 104 96 97 111 125 129 131 123 118 106 103 100 109 113
97 104 106 109 109 109 109 112 118 120 119 119 125 124 125 125 125 123 122 121 116 114 117 117 115 110 101 92 87 84 83 106 104 112 113 110 104 103 99 99 102 105 116
97 98 100 106 110 115 120 121 120 123 127 129 128 127 127 126 126 127 125 125 124 124 122 116 107 102 96 86 87 95 98 103 103 108 110 115 111 108 101 99 99 106 115